Stations météo

Publicité
Charleville, France (7075): Température de l'air & dewpoint: 20.11.2020 00:00:00 - 26.11.2020 00:00:00 (CET)Charleville, France (7075): Température de l'air 5cm: 20.11.2020 00:00:00 - 26.11.2020 00:00:00 (CET)Charleville, France (7075): Température de l'air -20cm & Température de l'air -100cm: 20.11.2020 00:00:00 - 26.11.2020 00:00:00 (CET)Charleville, France (7075): Vitesse du vent & gusts: 20.11.2020 00:00:00 - 26.11.2020 00:00:00 (CET)Charleville, France (7075): Direction du vent: 20.11.2020 00:00:00 - 26.11.2020 00:00:00 (CET)Charleville, France (7075): reduced air pressure: 20.11.2020 00:00:00 - 26.11.2020 00:00:00 (CET)Charleville, France (7075): visibility: 20.11.2020 00:00:00 - 26.11.2020 00:00:00 (CET)Charleville, France (7075): Ensoleillement: 20.11.2020 00:00:00 - 26.11.2020 00:00:00 (CET)Charleville, France (7075): Quantités de précipitations: 20.11.2020 00:00:00 - 26.11.2020 00:00:00 (CET)
Date & Time tt [°C] td [°C] tt 5cm [°C] tt -20cm [°C] tt -100cm [°C] ff [km/h] ff [knt] fx [km/h] fx [knt] dd ppp [hPa] vv [km] sd [min] rr [mm]
26.11.2020 00:00:00 4,7 4,1 1,7 8,7 11,9 2 1 5 3 E 1020,9 2,6 0 0,0
25.11.2020 23:00:00 5,2 4,6 4,8 8,8 11,9 2 1 5 3 ENE 1020,7 6 0 0,0
25.11.2020 22:00:00 5,1 4,4 4,9 8,8 11,9 0 0 9 5 N 1020,7 6 0 0,0
25.11.2020 21:00:00 5,0 4,6 3,3 8,8 11,9 5 3 9 5 W 1020,4 4,7 0 0,0
25.11.2020 20:00:00 6,0 4,8 3,5 8,8 11,9 0 0 6 3 N 1019,8 9 0 0,0
25.11.2020 19:00:00 6,7 5,2 5,5 8,8 11,9 3 2 10 5 E 1019,6 10 0 0,0
25.11.2020 18:00:00 7,2 5,2 6,2 8,7 11,9 7 4 15 8 SE 1018,9 11 0 0,0
25.11.2020 17:00:00 7,5 5,1 7,1 8,7 11,9 13 7 20 11 ESE 1018,7 12 0 0,0
25.11.2020 16:00:00 7,8 5,3 7,7 8,7 11,9 11 6 21 11 ESE 1018,3 13 0 0,0
25.11.2020 15:00:00 7,9 5,4 8,5 8,7 11,9 13 7 17 9 E 1018,4 12 0 0,0
25.11.2020 14:00:00 7,6 5,4 8,2 8,7 11,9 12 6 17 9 E 1018,4 13 0 0,0
25.11.2020 13:00:00 6,9 4,7 7,6 8,7 11,9 13 7 16 9 ESE 1018,4 11 0 0,0
25.11.2020 12:00:00 6,2 4,0 6,4 8,7 11,9 10 6 22 12 SE 1018,8 10 0 0,0
25.11.2020 11:00:00 5,2 3,5 4,9 8,8 11,9 13 7 24 13 ESE 1019,0 8 0 0,0
25.11.2020 10:00:00 4,5 3,0 4,4 8,8 11,9 15 8 26 14 SE 1018,8 7 32 0,0
25.11.2020 09:00:00 4,0 3,1 2,1 8,9 11,9 13 7 22 12 SE 1018,8 4,3 0 0,0
25.11.2020 08:00:00 2,8 2,4 0,5 8,9 12,0 9 5 16 9 SE 1018,6 3,7 0 0,0
25.11.2020 07:00:00 2,6 2,0 1,0 9,0 12,0 9 5 19 10 SE 1018,1 3,4 0 0,0
25.11.2020 06:00:00 3,4 2,7 2,4 9,0 11,9 10 6 18 10 SE 1018,2 4,2 0 0,0
25.11.2020 05:00:00 3,7 3,0 2,7 9,1 12,0 7 4 22 12 ESE 1017,9 4,2 0 0,0
25.11.2020 04:00:00 3,7 2,8 2,8 9,1 11,9 13 7 26 14 SE 1018,0 4,9 0 0,0
25.11.2020 03:00:00 3,7 2,8 2,8 9,2 12,0 17 9 27 14 ESE 1018,3 6 0 0,0
25.11.2020 02:00:00 3,6 2,9 2,3 9,2 12,0 12 7 26 14 ESE 1018,5 6 0 0,0
25.11.2020 01:00:00 4,3 3,1 3,6 9,2 12,0 17 9 32 17 ESE 1018,8 7 0 0,0
25.11.2020 00:00:00 4,9 3,7 4,8 9,3 12,0 16 9 33 18 ESE 1019,5 8 0 0,0
24.11.2020 23:00:00 4,9 3,9 4,9 9,3 12,0 18 10 31 17 ESE 1019,8 7 0 0,0
24.11.2020 22:00:00 4,7 4,0 4,7 9,4 12,0 19 10 30 16 ESE 1020,4 7 0 0,0
24.11.2020 21:00:00 4,5 3,6 4,5 9,4 12,0 16 9 27 15 ESE 1020,8 8 0 0,0
24.11.2020 20:00:00 4,4 3,5 4,5 9,4 12,0 18 10 31 17 SE 1021,1 9 0 0,0
24.11.2020 19:00:00 4,7 3,8 4,8 9,4 12,0 15 8 27 14 ESE 1021,2 10 0 0,0
24.11.2020 18:00:00 5,4 4,4 5,5 9,4 12,0 16 9 26 14 ESE 1021,4 15 0 0,0
24.11.2020 17:00:00 5,8 4,6 6,0 9,4 12,0 13 7 27 15 ESE 1021,5 10 0 0,0
24.11.2020 16:00:00 6,2 5,0 6,6 9,3 12,0 16 9 27 15 ESE 1021,8 19 0 0,0
24.11.2020 15:00:00 6,8 4,9 7,3 9,3 12,0 13 7 23 12 SE 1022,5 20 22 0,0
24.11.2020 14:00:00 7,5 5,6 7,5 9,3 12,0 14 8 23 12 SE 1022,9 20 15 0,0
24.11.2020 13:00:00 6,4 5,3 7,1 9,3 12,0 14 8 22 12 SE 1023,7 16 0 0,0
24.11.2020 12:00:00 6,1 5,7 6,7 9,4 12,0 14 8 22 12 ESE 1024,4 8 0 0,0
24.11.2020 11:00:00 5,8 5,7 6,3 9,3 12,0 12 6 24 13 SE 1025,2 3,4 0 0,0
24.11.2020 10:00:00 5,9 5,6 6,4 9,4 12,1 13 7 21 12 SE 1025,5 2,6 0 0,0
24.11.2020 09:00:00 6,4 6,0 6,5 9,4 12,1 13 7 20 11 ESE 1025,5 3,2 0 0,0
24.11.2020 08:00:00 7,0 6,4 6,8 9,3 12,0 9 5 16 9 SE 1025,5 3,7 0 0,0
24.11.2020 07:00:00 7,3 6,7 7,1 9,3 12,0 10 5 18 10 SE 1025,8 5 0 0,0
24.11.2020 06:00:00 7,3 6,7 7,0 9,3 12,1 5 3 11 6 SE 1026,3 10 0 0,0
24.11.2020 05:00:00 7,2 6,8 7,0 9,3 12,1 4 2 6 4 E 1026,6 5 0 0,0
24.11.2020 04:00:00 7,4 7,0 7,1 9,3 12,1 5 3 9 5 SE 1026,8 4,8 0 0,0
24.11.2020 03:00:00 7,6 7,0 7,2 9,3 12,1 9 5 14 7 ESE 1027,3 9 0 0,0
24.11.2020 02:00:00 7,6 7,0 7,3 9,3 12,1 10 5 15 8 ESE 1027,6 9 0 0,0
24.11.2020 01:00:00 7,8 7,4 7,7 9,3 12,1 6 3 11 6 E 1028,4 6 0 0,0
24.11.2020 00:00:00 7,8 7,5 7,8 9,3 12,1 8 4 11 6 ESE 1028,7 5 0 0,0
23.11.2020 23:00:00 7,8 7,7 7,8 9,2 12,1 6 3 8 4 E 1029,0 3,3 0 0,0
23.11.2020 22:00:00 7,8 7,7 7,8 9,2 12,1 5 3 11 6 ESE 1029,4 3,3 0 0,0
23.11.2020 21:00:00 7,8 7,7 7,8 9,2 12,2 4 2 14 8 SSE 1029,7 3,6 0 0,0
23.11.2020 20:00:00 7,7 7,7 7,8 9,2 12,1 6 3 9 5 ESE 1029,7 1,4 0 0,0
23.11.2020 19:00:00 7,8 7,7 7,8 9,2 12,1 4 2 8 5 SE 1029,9 0,5 0 0,0
23.11.2020 18:00:00 7,7 7,6 7,7 9,1 12,2 5 3 13 7 ESE 1029,7 1,8 0 0,0
23.11.2020 17:00:00 7,7 7,6 7,7 9,1 12,2 6 3 17 9 SE 1029,6 4,1 0 0,0
23.11.2020 16:00:00 7,6 7,5 7,8 9,1 12,2 8 5 13 7 ESE 1029,4 1,5 0 0,0
23.11.2020 15:00:00 7,7 7,1 8,0 9,0 12,2 8 4 11 6 ESE 1029,7 5 0 0,0
23.11.2020 14:00:00 7,7 7,1 8,4 9,0 12,2 6 4 11 6 ESE 1030,0 11 0 0,0
23.11.2020 13:00:00 7,5 6,9 8,2 9,0 12,2 6 3 11 6 SE 1030,2 2,1 0 0,0
23.11.2020 12:00:00 7,3 6,4 8,0 9,0 12,2 6 3 9 5 ESE 1030,4 5 0 0,0
23.11.2020 11:00:00 7,1 6,4 7,3 9,0 12,2 7 4 11 6 ESE 1030,5 9 0 0,0
23.11.2020 10:00:00 6,6 6,2 6,6 9,0 12,2 6 3 10 5 ESE 1030,3 8 0 0,0
23.11.2020 09:00:00 6,2 5,9 6,1 9,0 12,2 5 3 9 5 E 1030,0 4,5 0 0,0
23.11.2020 08:00:00 6,0 5,9 5,9 8,9 12,2 4 2 10 5 SE 1029,5 3,7 0 0,0
23.11.2020 07:00:00 5,9 5,8 6,0 9,0 12,2 6 3 9 5 E 1029,3 3,8 0 0,0
23.11.2020 06:00:00 6,1 6,0 6,1 8,9 12,2 4 2 9 5 E 1028,9 3,3 0 0,0
23.11.2020 05:00:00 6,0 5,9 6,1 8,9 12,2 6 3 9 5 SE 1028,6 1,8 0 0,2
23.11.2020 04:00:00 6,0 5,9 6,1 8,9 12,2 4 2 8 5 ESE 1028,7 1,6 0 0,6
23.11.2020 03:00:00 6,0 5,9 6,1 8,9 12,2 4 2 7 4 ESE 1028,7 1,8 0 0,2
23.11.2020 02:00:00 6,0 5,9 6,1 8,9 12,3 3 2 7 4 SE 1028,7 1,5 0 0,2
23.11.2020 01:00:00 6,2 5,6 6,1 8,9 12,3 3 2 4 2 ENE 1028,7 2,1 0 0,2
23.11.2020 00:00:00 6,5 5,4 6,4 8,9 12,3 3 1 8 4 ESE 1028,6 9 0 0,0
22.11.2020 23:00:00 6,6 4,9 6,5 8,9 12,3 5 3 9 5 SE 1028,6 17 0 0,0
22.11.2020 22:00:00 6,5 5,1 6,4 8,9 12,3 6 3 9 5 ESE 1028,8 15 0 0,0
22.11.2020 21:00:00 6,5 5,0 6,3 8,9 12,3 6 3 9 5 SE 1028,6 16 0 0,0
22.11.2020 20:00:00 6,4 5,3 6,4 8,9 12,3 6 4 9 5 ESE 1028,7 11 0 0,0
22.11.2020 19:00:00 6,4 5,7 6,2 8,8 12,3 5 3 7 4 ESE 1028,6 10 0 0,0
22.11.2020 18:00:00 6,2 5,5 6,1 8,8 12,3 5 3 11 6 ESE 1028,4 9 0 0,0
22.11.2020 17:00:00 6,1 5,4 6,0 8,8 12,3 8 4 11 6 ESE 1028,6 8 0 0,0
22.11.2020 16:00:00 6,2 5,5 6,5 8,8 12,3 5 3 11 6 E 1028,3 7 0 0,0
22.11.2020 15:00:00 6,0 5,4 6,4 8,7 12,3 8 4 13 7 ESE 1028,3 6 0 0,0
22.11.2020 14:00:00 5,4 5,0 5,9 8,7 12,3 9 5 14 8 E 1028,9 5 0 0,0
22.11.2020 13:00:00 5,1 4,8 5,1 8,8 12,3 8 5 12 6 E 1029,5 2,8 0 0,0
22.11.2020 12:00:00 4,5 4,2 4,8 8,7 12,3 8 4 13 7 E 1030,1 3,5 0 0,0
22.11.2020 11:00:00 4,4 3,8 4,7 8,8 12,3 8 4 14 8 ESE 1030,5 8 0 0,0
22.11.2020 10:00:00 4,4 4,0 4,3 8,8 12,4 7 4 13 7 ESE 1030,5 3,2 0 0,0
22.11.2020 09:00:00 4,2 3,6 4,2 8,8 12,4 8 4 13 7 SE 1030,5 5 0 0,0
22.11.2020 08:00:00 4,3 3,7 4,2 8,8 12,4 9 5 14 7 SE 1030,1 4,5 0 0,0
22.11.2020 07:00:00 4,9 3,1 4,8 8,8 12,4 8 4 13 7 SE 1030,2 10 0 0,0
22.11.2020 06:00:00 5,0 3,0 5,0 8,8 12,4 8 4 11 6 SE 1030,2 17 0 0,0
22.11.2020 05:00:00 5,2 3,2 5,2 8,8 12,4 6 3 13 7 SE 1030,1 19 0 0,0
22.11.2020 04:00:00 5,4 3,1 5,2 8,8 12,4 9 5 14 8 SE 1030,0 20 0 0,0
22.11.2020 03:00:00 5,5 3,2 5,4 8,7 12,4 8 5 14 7 SSE 1030,1 20 0 0,0
22.11.2020 02:00:00 5,8 3,6 5,5 8,8 12,4 6 4 10 5 ESE 1030,1 20 0 0,0
22.11.2020 01:00:00 5,8 3,5 5,6 8,8 12,4 7 4 16 9 ESE 1030,3 20 0 0,0
22.11.2020 00:00:00 5,9 3,6 5,6 8,8 12,4 9 5 12 6 ESE 1030,4 20 0 0,0
21.11.2020 23:00:00 6,2 3,4 5,7 8,7 12,4 6 3 13 7 ESE 1030,9 20 0 0,0
21.11.2020 22:00:00 6,1 3,4 5,8 8,7 12,4 5 3 10 6 E 1031,2 20 0 0,0
21.11.2020 21:00:00 6,1 3,6 5,9 8,7 12,4 8 5 23 13 ENE 1031,6 20 0 0,0
21.11.2020 20:00:00 6,3 3,3 6,2 8,7 12,4 16 8 23 13 S 1031,7 20 0 0,0
21.11.2020 19:00:00 6,5 3,3 6,3 8,7 12,4 13 7 22 12 S 1031,7 15 0 0,0
21.11.2020 18:00:00 6,6 3,2 5,1 8,6 12,4 16 9 26 14 S 1031,9 20 0 0,0
21.11.2020 17:00:00 6,1 3,3 5,0 8,6 12,4 7 4 17 9 S 1032,0 20 16 0,0
21.11.2020 16:00:00 7,9 3,5 7,8 8,6 12,4 9 5 22 12 S 1031,9 20 27 0,0
21.11.2020 15:00:00 7,8 3,5 8,6 8,5 12,4 9 5 21 12 S 1032,0 20 1 0,0
21.11.2020 14:00:00 7,9 3,2 9,6 8,5 12,4 12 7 26 14 SSW 1032,5 20 56 0,0
21.11.2020 13:00:00 8,1 3,4 8,6 8,5 12,4 12 6 23 13 SSW 1033,0 20 56 0,0
21.11.2020 12:00:00 4,6 2,5 5,5 8,6 12,4 8 4 15 8 E 1034,4 16 16 0,0
21.11.2020 11:00:00 3,1 1,6 4,0 8,6 12,5 9 5 15 8 ESE 1035,3 12 50 0,0
21.11.2020 10:00:00 1,6 0,9 -1,1 8,7 12,5 10 5 15 8 ESE 1035,2 8 47 0,0
21.11.2020 09:00:00 -0,4 -0,7 -2,8 8,8 12,5 8 4 13 7 ESE 1035,4 6 0 0,0
21.11.2020 08:00:00 -1,0 -1,3 -3,1 8,8 12,4 5 3 16 9 ESE 1035,4 5 0 0,0
21.11.2020 07:00:00 -1,5 -1,8 -3,0 8,9 12,4 8 4 14 8 ESE 1035,8 6 0 0,0
21.11.2020 06:00:00 -1,6 -1,9 -2,5 9,0 12,4 8 4 10 5 ESE 1035,9 4,0 0 0,0
21.11.2020 05:00:00 -0,9 -1,0 -2,6 9,0 12,5 3 2 9 5 ESE 1035,7 4,7 0 0,0
21.11.2020 04:00:00 -1,3 -1,4 -2,7 9,1 12,4 3 1 11 6 E 1035,7 1,1 0 0,0
21.11.2020 03:00:00 -1,1 -1,2 -1,5 9,2 12,5 0 0 9 5 N 1036,2 0,2 0 0,0
21.11.2020 02:00:00 -0,7 -0,8 -1,5 9,3 12,5 5 3 9 5 SE 1036,4 0,3 0 0,0
21.11.2020 01:00:00 -0,4 -0,4 -1,6 9,4 12,5 5 3 7 4 SE 1036,8 0,3 0 0,0
21.11.2020 00:00:00 -1,6 -1,7 -3,9 9,5 12,5 3 2 5 3 E 1037,1 1,1 0 0,0
20.11.2020 23:00:00 -2,7 -3,2 -4,8 9,6 12,4 2 1 6 3 SSE 1037,2 6 0 0,0
20.11.2020 22:00:00 -2,1 -2,4 -4,9 9,7 12,5 0 0 3 2 N 1037,3 0,3 0 0,0
20.11.2020 21:00:00 -1,3 -1,4 -4,2 9,7 12,5 2 1 4 2 WSW 1037,3 7 0 0,0
20.11.2020 20:00:00 -0,6 -1,0 -3,4 9,8 12,5 0 0 4 2 N 1037,3 9 0 0,0
20.11.2020 19:00:00 0,1 -0,5 -2,8 9,8 12,5 2 1 4 2 E 1036,9 13 0 0,0
20.11.2020 18:00:00 1,5 0,2 -1,5 9,8 12,5 3 2 4 2 NW 1036,8 20 0 0,0
20.11.2020 17:00:00 3,2 0,6 1,1 9,8 12,5 3 2 8 4 ESE 1036,5 20 4 0,0
20.11.2020 16:00:00 6,2 0,5 5,3 9,8 12,5 5 3 12 6 W 1035,9 20 0 0,0
20.11.2020 15:00:00 6,8 0,5 7,2 9,7 12,5 8 4 18 10 W 1036,3 20 29 0,0
20.11.2020 14:00:00 7,7 0,9 7,9 9,7 12,5 9 5 15 8 NW 1036,5 20 15 0,0
20.11.2020 13:00:00 7,6 2,5 11,1 9,8 12,5 4 2 11 6 NNE 1036,6 20 60 0,0
20.11.2020 12:00:00 5,6 4,4 6,7 9,8 12,5 4 2 11 6 W 1037,3 7 34 0,0
20.11.2020 11:00:00 4,8 4,8 3,6 9,9 12,5 0 0 5 3 N 1037,4 6 25 0,0
20.11.2020 10:00:00 2,3 2,3 0,4 9,9 12,5 2 1 4 2 N 1037,3 0,3 7 0,0
20.11.2020 09:00:00 0,4 0,4 -2,6 10,0 12,5 2 1 9 5 W 1036,9 0,1 19 0,0
20.11.2020 08:00:00 -0,1 -0,2 -1,8 10,1 12,5 3 1 5 3 SE 1036,3 0,3 0 0,0
20.11.2020 07:00:00 1,4 1,3 -0,7 10,2 12,5 3 1 5 3 SW 1035,6 2,3 0 0,0
20.11.2020 06:00:00 1,3 1,2 -0,5 10,3 12,5 2 1 10 6 E 1035,3 2,1 0 0,0
20.11.2020 05:00:00 1,4 1,3 -0,4 10,4 12,5 7 4 9 5 NW 1034,9 4,0 0 0,0
20.11.2020 04:00:00 2,0 1,9 -0,2 10,4 12,5 0 0 8 4 N 1034,7 1,2 0 0,0
20.11.2020 03:00:00 2,0 1,7 -0,1 10,5 12,5 7 4 10 5 NW 1034,8 6 0 0,0
20.11.2020 02:00:00 2,4 2,0 0,1 10,6 12,5 9 5 12 6 NW 1035,1 14 0 0,0
20.11.2020 01:00:00 2,6 2,5 1,0 10,6 12,5 6 3 9 5 WNW 1034,9 3,5 0 0,0
20.11.2020 00:00:00 3,7 3,6 0,3 10,7 12,5 7 4 10 5 WNW 1034,1 3,7 0 0,0

tt = Température de l'air
td = dewpoint
tt 5cm = Température de l'air 5cm
tt -20cm = Température de l'air -20cm
tt -100cm = Température de l'air -100cm
ff = Vitesse du vent
fx = gusts
dd = Direction du vent
ppp = reduced air pressure
vv = visibility
sd = Ensoleillement
rr = Quantités de précipitations

stations d'obs. à proximité